Regional Weather Roundup
Issued by NWS Sioux Falls, SD

Home | Current Version | Previous Version | Graphics & Text | Print | Product List | Glossary Off
Versions: 1 2 3 4 5 6 7 8 9 10 11 12 13 14 15 16 17 18 19 20 21 22 23 24 25 26 27 28 29 30 31 32 33 34 35 36 37 38 39 40 41 42 43 44 45 46 47 48 49 50

000
ASUS43 KFSD 200402
RWRFSD

WEATHER ROUNDUP FOR SE SOUTH DAKOTA/SW MINNESOTA/NW IOWA
NATIONAL WEATHER SERVICE SIOUX FALLS SD
1100 PM CDT WED JUL 19 2017

NOTE: "FAIR" INDICATES FEW OR NO CLOUDS BELOW 12,000 FEET WITH NO
SIGNIFICANT WEATHER AND OR OBSTRUCTIONS TO VISIBILITY.


SDZ038>040-050-052>070-200500-
SOUTHEAST SOUTH DAKOTA

CITY           SKY/WX    TMP DP  RH WIND       PRES   REMARKS
BROOKINGS      TSTM      73  70  90 NE5       29.93R
CHAMBERLAIN    MOCLDY    82  68  62 CALM      29.94R
HURON          CLOUDY    79  74  84 N10       29.93R
MADISON        FAIR      73  73 100 NE8       29.93R
MITCHELL       CLOUDY    79  76  90 NW5       29.91R
SIOUX FALLS    CLOUDY    76  74  93 CALM      29.88R
WINNER         FAIR      78  67  68 W3        29.95R
YANKTON        CLOUDY    84  75  74 CALM      29.88R
$$

MNZ071-072-080-081-089-090-097-098-200500-
SOUTHWEST MINNESOTA

CITY           SKY/WX    TMP DP  RH WIND       PRES   REMARKS
FAIRMONT       CLOUDY    73  70  90 S3        29.88F
JACKSON        CLOUDY    72  68  88 CALM      29.90S
MARSHALL       LGT RAIN  72  71  97 N6        29.92R
MONTEVIDEO     CLEAR     72  66  83 E6        29.93S
PIPESTONE      CLOUDY    73  68  83 E5        29.92R
REDWOOD FALLS  CLOUDY    71  67  87 N7        29.89S
TRACY          PTCLDY    72  72  99 CALM      29.90F
WINDOM         CLOUDY    73  66  78 SE3       29.89F
WORTHINGTON    CLOUDY    72  70  93 CALM      29.91R
$$

IAZ001>003-012>014-020>022-031-032-NEZ013-014-SDZ071-200500-
NORTHWEST IOWA

CITY           SKY/WX    TMP DP  RH WIND       PRES   REMARKS
CHEROKEE       CLOUDY    87  75  67 SW10G18   29.85R HX  96
DENISON        CLOUDY    82  79  89 S9G18     29.95F
ESTHERVILLE    CLOUDY    72  71  97 SE3       29.88F
ORANGE CITY    CLOUDY    84  73  70 W7        29.89R
SHELDON        CLOUDY    77  75  94 CALM      29.87R
SIOUX CITY     LGT RAIN  87  77  72 S23G33    29.84F HX  99
SPENCER        CLOUDY    80  75  84 SE5       29.89R
STORM LAKE     CLOUDY    84  66  54 SW18G25   29.85R
$$

ABBREVIATIONS USED IN REMARKS
   TC - TEMPERATURE IN CELSIUS
  WCI - WIND CHILL INDEX
   HX - HEAT INDEX
  VSB - VISIBILITY





USA.gov is the U.S. government's official web portal to all federal, state and local government web resources and services.